Location: Crni Vrh Observatory
(45.9460°N, 14.0712°E)
Time: 22:29:59
(UTC+01:00)

ISS - Visible Passes

Search period start: 03 December 2023 00:00
Search period end: 13 December 2023 00:00
Orbit: 416 x 417 km, 51.6° (Epoch: 03 December)

Date Brightness Start Highest point End Pass type
(mag) Time Alt. Az. Time Alt. Az. Time Alt. Az.
03 Dec -2.4 18:18:11 10° WNW 18:21:19 37° SW 18:22:31 27° S visible
04 Dec -3.2 17:29:35 10° WNW 17:32:53 60° SSW 17:36:12 10° SE visible
05 Dec -0.8 18:18:35 10° W 18:20:42 16° SW 18:22:49 10° S visible
06 Dec -1.4 17:29:28 10° W 17:32:17 25° SW 17:35:06 10° SSE visible
08 Dec 0.0 17:30:45 10° WSW 17:31:20 10° SW 17:31:54 10° SW visible
